User: anonymous   Login
Location: General Nathan Twining Observatory
(34.5931°N, 106.8201°W)
Time: 03:31:45
(UTC-06:00)
Language:

Cosmos 1937 Rocket - Orbit

View from above orbital plane
View from above orbital plane
View from above satellite
View from above satellite

Ground track
Ground track

The orbit data is extracted from the following two-line orbital elements,

1 19039U 88029B   19083.85537467 +.00000027 +00000-0 +17332-4 0  9994
2 19039 074.0492 190.3846 0024148 205.8877 154.1071 14.38425177623403
Epoch (UTC): 24 March 2019 20:31:44
Eccentricity: 0.0024148
inclination: 74.0492°
perigee height: 746 km
apogee height: 781 km
right ascension of ascending node: 190.3846°
argument of perigee: 205.8877°
revolutions per day: 14.38425177
mean anomaly at epoch: 154.1071°
orbit number at epoch: 62340

The dashed part of the orbit path shows where the satellite is in the earth's shadow,  

DLR